Weather History for New Orleans, LA

Change the Weather History Date:

Tuesday, March 19, 2013

  Actual Average Record
Temperature  
Mean Temperature 66 °F -  
Max Temperature 73 °F 73 °F 87 °F (1963)
Min Temperature 60 °F 52 °F 38 °F (1962)
Cooling Degree Days 2    
Growing Degree Days 16 (Base 50)    
Moisture  
Dew Point 56 °F    
Average Humidity 70    
Maximum Humidity 88    
Minimum Humidity 43    
Precipitation  
Precipitation 0.00 in - - ()
Sea Level Pressure  
Sea Level Pressure 29.98 in    
Wind  
Wind Speed 11 mph (NE)    
Max Wind Speed 18 mph    
Max Gust Speed -    
Visibility 10 miles    
Events      
Averages and records for this station are not official NWS values.
T = Trace of Precipitation, MM = Missing Value Source: NWS Daily Summary

Daily Weather History Graph

Daily Weather History Graph

Search for Another Location

Airport:

Trip Planner

Search our weather history database for the weather conditions in past years. The results will help you decide how hot, cold, wet, or windy it might be!

Date:

Astronomy

Mar. 19, 2013 Rise Set
Actual Time 7:05 AM CDT 7:11 PM CDT
Civil Twilight 6:41 AM CDT 7:35 PM CDT
Nautical Twilight 6:14 AM CDT 8:03 PM CDT
Astronomical Twilight 5:46 AM CDT 8:31 PM CDT
Moon 12:19 PM CDT (3/19) 1:35 AM CDT (3/19)
Length of Visible Light 12h 54m
Length of Day
12h 06m
Waxing Crescent, 50% of the Moon is Illuminated
Mar 19
Waxing Crescent
Mar 19
First Quarter
Mar 27
Full
Apr 2
Last Quarter
Apr 10
New

Hourly Weather History & Observations

Time (CDT) Temp. Dew Point Humidity Pressure Visibility Wind Dir Wind Speed Gust Speed Precip Events Conditions
12:53 AM 69.1 °F 64.0 °F 84% 29.91 in 8.0 mi WNW 6.9 mph - N/A   Mostly Cloudy
1:30 AM 68.0 °F 62.6 °F 83% 29.91 in 10.0 mi North 11.5 mph - N/A   Mostly Cloudy
1:53 AM 66.9 °F 59.0 °F 76% 29.93 in 10.0 mi North 10.4 mph - N/A   Mostly Cloudy
2:53 AM 64.9 °F 59.0 °F 81% 29.94 in 10.0 mi North 16.1 mph - N/A   Mostly Cloudy
3:53 AM 63.0 °F 57.9 °F 84% 29.94 in 10.0 mi NNE 13.8 mph - N/A   Mostly Cloudy
4:53 AM 63.0 °F 57.0 °F 81% 29.96 in 10.0 mi NNE 18.4 mph - N/A   Mostly Cloudy
5:46 AM 60.8 °F 55.4 °F 82% 29.97 in 10.0 mi NNE 15.0 mph - N/A   Mostly Cloudy
5:53 AM 61.0 °F 55.0 °F 81% 29.99 in 10.0 mi NNE 16.1 mph - N/A   Mostly Cloudy
6:14 AM 60.8 °F 53.6 °F 77% 29.97 in 10.0 mi NNE 16.1 mph - N/A   Mostly Cloudy
6:53 AM 60.1 °F 54.0 °F 80% 30.01 in 10.0 mi NNE 11.5 mph - N/A   Scattered Clouds
7:53 AM 60.1 °F 46.9 °F 62% 30.03 in 10.0 mi NE 16.1 mph - N/A   Scattered Clouds
8:53 AM 61.0 °F 48.9 °F 64% 30.04 in 10.0 mi NE 12.7 mph - N/A   Clear
9:53 AM 63.0 °F 50.0 °F 63% 30.04 in 10.0 mi ENE 9.2 mph - N/A   Clear
10:53 AM 66.9 °F 52.0 °F 59% 30.04 in 10.0 mi Variable 5.8 mph - N/A   Clear
11:53 AM 69.1 °F 54.0 °F 58% 30.04 in 10.0 mi NNE 11.5 mph - N/A   Partly Cloudy
12:53 PM 72.0 °F 54.0 °F 53% 30.01 in 10.0 mi SSE 10.4 mph - N/A   Partly Cloudy
1:53 PM 72.0 °F 57.0 °F 59% 30.00 in 10.0 mi NNE 17.3 mph - N/A   Partly Cloudy
2:53 PM 70.0 °F 55.9 °F 61% 29.98 in 10.0 mi NE 17.3 mph - N/A   Scattered Clouds
3:53 PM 71.1 °F 55.9 °F 59% 29.98 in 10.0 mi NE 17.3 mph - N/A   Mostly Cloudy
4:11 PM 69.8 °F 55.4 °F 60% 29.96 in 10.0 mi ENE 12.7 mph - N/A   Mostly Cloudy
4:37 PM 69.8 °F 55.4 °F 60% 29.96 in 10.0 mi ENE 10.4 mph - N/A   Mostly Cloudy
4:53 PM 70.0 °F 55.9 °F 61% 29.96 in 10.0 mi East 8.1 mph - N/A   Overcast
5:53 PM 69.1 °F 55.0 °F 61% 29.97 in 10.0 mi East 6.9 mph - N/A   Mostly Cloudy
6:53 PM 68.0 °F 55.9 °F 65% 29.98 in 10.0 mi SE 4.6 mph - N/A   Mostly Cloudy
7:53 PM 66.0 °F 57.0 °F 73% 29.98 in 10.0 mi SE 4.6 mph - N/A   Scattered Clouds
8:53 PM 64.9 °F 57.0 °F 75% 29.99 in 10.0 mi Calm Calm - N/A   Partly Cloudy
9:53 PM 62.6 °F 59.0 °F 88% 30.00 in 10.0 mi SSE 4.6 mph - N/A   Partly Cloudy
10:53 PM 62.1 °F 57.9 °F 86% 30.01 in 10.0 mi ENE 3.5 mph - N/A   Partly Cloudy
11:53 PM 63.0 °F 59.0 °F 87% 30.01 in 8.0 mi NNE 4.6 mph - N/A   Overcast